Wind_Speed
24 19 11 18 40 56 66 81 77 76 73 72 69 64 69 59 57 72 78 71 72 71 67 63 58 52 46 42 38 36 34 34 33 31 27 24 21 19
22 22 25 29 51 60 72 73 71 69 69 67 65 58 69 63 56 77 80 71 73 70 66 62 57 53 48 43 39 36 33 32 32 31 28 25 22 20
20 23 28 34 60 62 67 66 66 64 64 63 62 58 63 62 66 73 77 73 72 67 63 61 58 54 49 45 41 37 34 31 30 29 27 26 24 21
16 27 28 43 62 66 63 63 62 60 58 59 58 56 67 54 68 63 80 73 68 67 63 60 59 55 51 47 43 40 36 33 30 28 25 23 22 21
40 31 30 59 60 61 60 60 58 58 55 55 53 56 61 53 62 66 74 72 68 67 64 62 59 55 52 49 45 42 38 35 31 28 24 21 19 19
24 31 51 56 61 54 55 55 54 53 52 52 48 51 57 61 64 71 59 65 68 66 65 61 59 57 55 51 48 44 41 38 34 31 27 24 21 19
38 40 56 53 50 50 50 51 51 51 49 46 44 50 56 62 68 65 67 55 67 66 63 61 60 59 58 55 51 48 44 40 37 34 32 29 26 24
42 42 52 50 46 47 45 45 44 45 46 44 43 50 64 50 63 66 67 64 64 65 62 59 58 56 53 49 47 47 45 43 41 39 37 35 32 30
37 47 46 43 41 40 39 39 40 40 40 41 48 51 47 52 59 62 64 60 62 58 60 59 57 56 54 52 50 48 47 46 44 42 41 39 37 34
47 43 43 41 39 37 36 35 35 33 34 37 49 47 43 53 62 60 59 62 58 57 55 57 57 55 53 53 52 51 49 48 47 45 44 43 41 39
46 41 37 35 36 34 30 31 30 27 30 37 44 38 41 46 52 52 58 52 55 56 51 52 52 54 52 52 51 48 45 44 43 43 44 43 42 40
40 39 35 30 30 31 29 26 25 27 27 29 36 32 32 35 47 57 59 54 50 52 48 50 48 55 54 52 50 48 45 44 44 42 44 43 42 40
34 35 33 30 28 27 24 23 33 34 34 28 26 27 36 35 43 52 51 51 47 48 44 46 47 50 48 54 51 47 45 43 43 43 44 45 44 43
29 29 30 29 27 27 22 23 31 30 24 25 30 31 30 37 35 53 50 52 47 47 49 46 45 45 48 45 52 48 46 45 44 45 45 46 46 47
23 26 27 28 27 29 26 24 31 41 24 26 26 33 39 36 33 45 49 47 45 43 42 47 48 50 44 44 45 50 48 48 49 49 48 48 49 48
24 21 22 22 23 23 24 26 22 20 22 21 23 26 31 37 35 50 49 45 50 45 42 45 49 52 47 43 44 46 53 55 54 54 53 53 53 53
28 23 19 16 21 19 18 21 16 14 13 20 18 18 30 27 33 41 48 50 47 45 46 48 51 55 55 52 48 47 48 52 52 53 53 55 58 59
43 32 26 19 15 12 18 19 17 14 13 16 15 16 19 25 25 28 36 44 47 48 53 52 59 62 55 55 54 54 55 57 59 60 58 62 59 58
48 47 42 33 25 21 13 6 3 13 15 17 16 16 17 22 22 20 21 30 31 38 43 43 43 47 49 49 51 52 54 54 56 60 64 66 67 65
43 41 40 40 38 34 28 18 11 1 8 13 22 23 23 24 27 28 30 29 34 33 33 33 34 36 42 47 50 50 52 52 54 55 56 61 61 63
41 41 39 37 34 32 29 28 26 21 12 3 4 10 19 28 31 34 37 36 36 38 40 43 45 44 45 47 47 47 47 48 49 52 54 59 65 70
36 36 35 35 33 31 29 26 22 20 19 16 13 9 5 6 15 22 26 28 32 35 39 44 47 50 53 54 55 57 59 59 59 60 60 60 61 61
33 31 30 29 30 28 25 23 20 19 17 13 11 9 9 9 9 10 12 15 18 22 32 35 38 43 46 50 52 56 61 65 67 69 72 74 75 75
Wind_Direction
346 11 36 119 141 139 151 164 165 165 167 169 172 173 181 170 157 178 174 175 175 176 184 183 183 182 182 182 179 177 181 182 185 184 184 187 185 185
38 85 75 128 128 136 155 160 162 163 165 168 168 173 182 168 174 177 172 175 178 177 183 183 183 182 183 182 178 176 178 180 185 187 188 191 190 190
46 92 90 122 123 144 154 156 158 160 164 166 168 173 185 173 164 169 173 175 177 178 182 184 185 184 184 183 179 178 178 177 182 185 188 192 194 195
66 75 112 108 129 144 150 153 156 158 163 165 169 173 185 168 168 164 179 175 177 179 182 186 187 186 186 186 183 182 181 180 181 182 184 189 195 199
92 81 107 122 133 146 148 152 154 155 159 166 171 176 185 178 177 174 165 182 178 181 183 188 189 189 189 190 188 188 186 188 188 189 189 191 195 202
85 108 120 126 138 142 146 150 151 153 159 165 168 178 184 169 171 179 173 179 178 183 186 188 189 191 193 193 193 194 193 194 196 198 200 203 205 210
95 111 118 125 135 140 144 147 150 154 158 162 168 180 185 181 174 176 178 185 182 186 188 190 192 193 195 195 196 198 200 201 204 206 209 211 217 218
101 107 117 126 131 137 143 146 150 155 159 164 175 184 169 180 181 178 185 184 189 187 189 193 195 197 198 199 202 205 206 208 210 214 216 219 222 225
106 106 115 123 128 132 138 142 148 156 161 171 184 174 169 173 175 187 187 192 193 195 188 196 198 198 200 202 204 209 211 213 217 220 223 225 228 232
106 112 118 119 122 129 137 142 149 153 163 170 177 175 168 178 178 187 190 190 193 194 194 196 199 200 202 205 206 209 213 216 218 222 225 229 230 232
111 112 115 122 123 125 132 140 148 153 160 180 179 171 174 181 185 194 192 195 198 197 197 199 201 202 207 209 211 213 216 219 221 223 226 228 231 232
110 111 110 118 123 125 124 135 143 149 159 174 179 174 184 183 182 184 190 197 199 204 202 204 205 207 208 213 213 215 218 221 223 225 227 228 230 232
108 112 114 112 119 125 130 131 140 144 156 162 178 161 161 168 178 184 193 198 201 203 206 208 212 214 213 212 216 218 221 225 228 227 230 231 232 234
109 111 114 118 123 124 130 135 144 159 157 163 157 164 177 177 181 184 193 201 203 204 210 209 214 219 224 222 219 219 222 227 231 234 236 237 237 237
111 117 120 125 131 137 145 138 164 160 143 145 160 170 166 180 188 189 194 201 200 209 211 215 216 222 225 227 224 223 226 229 232 234 237 239 241 242
87 109 123 130 133 144 160 153 173 171 168 147 154 162 177 178 179 193 203 198 200 211 214 218 224 226 228 225 225 232 233 232 233 235 237 239 241 242
84 85 82 107 140 143 143 164 175 203 186 194 190 170 173 166 178 189 188 199 209 218 223 226 230 231 234 239 237 237 245 247 248 247 243 244 245 245
67 72 76 84 86 119 154 167 175 179 190 200 207 203 202 191 180 184 194 204 208 213 215 223 230 234 241 242 241 245 247 251 253 250 252 256 250 252
70 72 72 74 76 78 90 112 210 207 191 193 197 216 221 219 228 233 217 203 203 208 212 214 219 223 227 230 233 238 242 245 248 252 254 252 254 253
66 66 67 68 70 70 72 81 90 89 212 207 213 213 217 224 232 232 231 225 224 224 228 231 225 226 229 232 234 234 237 240 243 246 248 248 250 253
59 59 60 60 61 61 62 64 68 71 70 57 279 255 244 233 234 243 248 252 245 243 244 242 242 240 236 236 236 239 242 243 245 246 247 249 250 250
57 57 55 52 51 50 50 50 49 51 53 49 46 38 13 286 270 269 270 275 269 268 264 259 256 253 249 248 247 247 248 247 246 247 248 249 250 252
49 47 48 49 46 44 41 40 39 37 36 31 22 4 348 333 321 304 288 277 274 270 265 265 265 267 267 267 268 268 264 263 264 263 261 258 256 255
Height
5415 5408 5405 5402 5405 5413 5434 5461 5485 5507 5527 5545 5566 5583 5598 5617 5631 5646 5659 5676 5692 5708 5726 5739 5752 5762 5772 5781 5789 5797 5804 5810 5817 5823 5828 5834 5839 5843
5420 5415 5414 5415 5417 5431 5455 5479 5500 5521 5537 5555 5574 5590 5602 5618 5635 5648 5663 5677 5695 5709 5724 5738 5750 5762 5772 5781 5789 5796 5804 5809 5816 5822 5827 5832 5838 5842
5430 5428 5428 5427 5432 5452 5474 5495 5513 5532 5549 5564 5581 5594 5605 5618 5635 5651 5663 5679 5695 5709 5724 5737 5751 5762 5771 5780 5788 5796 5803 5809 5815 5821 5826 5831 5836 5841
5441 5439 5439 5439 5451 5472 5490 5507 5523 5540 5557 5573 5585 5597 5607 5622 5638 5653 5666 5678 5694 5709 5723 5738 5751 5760 5769 5779 5787 5795 5802 5808 5814 5819 5824 5830 5835 5840
5453 5454 5453 5457 5472 5489 5503 5517 5533 5547 5562 5578 5591 5602 5614 5626 5640 5655 5669 5682 5697 5710 5724 5738 5749 5759 5768 5777 5785 5793 5800 5807 5812 5818 5823 5828 5833 5838
5464 5466 5469 5478 5491 5506 5518 5530 5543 5556 5569 5583 5596 5607 5619 5633 5646 5660 5671 5683 5695 5709 5722 5735 5745 5755 5765 5775 5782 5790 5797 5804 5810 5816 5821 5826 5831 5835
5478 5481 5486 5497 5510 5520 5531 5542 5554 5566 5576 5587 5599 5612 5624 5638 5651 5663 5675 5685 5696 5711 5721 5731 5740 5749 5759 5769 5778 5786 5794 5801 5806 5812 5817 5822 5827 5831
5495 5499 5503 5512 5523 5533 5544 5555 5565 5576 5585 5595 5605 5617 5632 5643 5654 5666 5677 5685 5696 5708 5721 5731 5741 5752 5763 5772 5779 5785 5791 5796 5801 5807 5811 5816 5821 5826
5510 5514 5521 5528 5536 5545 5554 5564 5574 5584 5593 5601 5610 5624 5636 5645 5657 5668 5679 5688 5700 5711 5720 5731 5741 5751 5759 5765 5773 5780 5786 5791 5796 5801 5806 5811 5817 5822
5525 5530 5535 5540 5548 5556 5564 5573 5582 5590 5599 5607 5618 5628 5639 5649 5660 5671 5682 5694 5704 5714 5721 5731 5738 5746 5754 5760 5767 5772 5778 5784 5790 5796 5801 5806 5811 5815
5539 5545 5550 5555 5561 5569 5577 5584 5592 5598 5605 5613 5624 5635 5644 5654 5664 5674 5683 5693 5702 5711 5721 5729 5737 5746 5752 5758 5764 5770 5775 5781 5786 5791 5796 5800 5804 5808
5551 5557 5563 5568 5574 5580 5587 5593 5600 5606 5613 5621 5630 5640 5646 5653 5662 5673 5684 5695 5703 5712 5719 5727 5736 5742 5747 5753 5759 5765 5770 5775 5781 5785 5788 5793 5797 5801
5563 5568 5575 5579 5584 5590 5596 5602 5608 5615 5621 5628 5635 5642 5649 5656 5664 5674 5685 5695 5703 5712 5719 5726 5732 5738 5744 5751 5755 5761 5765 5770 5775 5778 5781 5786 5790 5794
5576 5579 5583 5588 5593 5597 5603 5608 5614 5621 5625 5632 5638 5644 5651 5660 5666 5676 5686 5695 5702 5710 5718 5724 5730 5734 5740 5744 5751 5754 5759 5763 5767 5771 5775 5779 5782 5784
5584 5588 5591 5596 5601 5605 5610 5616 5620 5625 5630 5635 5641 5648 5654 5661 5669 5677 5685 5693 5700 5708 5713 5719 5723 5727 5732 5737 5741 5746 5751 5754 5758 5761 5765 5769 5772 5775
5594 5596 5600 5603 5607 5612 5617 5622 5626 5630 5636 5641 5647 5651 5657 5664 5670 5675 5684 5690 5696 5702 5707 5713 5717 5721 5725 5729 5733 5737 5740 5742 5746 5750 5753 5757 5760 5763
5603 5606 5609 5611 5614 5617 5621 5627 5631 5635 5640 5644 5649 5655 5660 5664 5670 5676 5681 5686 5692 5697 5702 5706 5709 5713 5716 5720 5724 5727 5729 5732 5735 5738 5742 5744 5747 5749
5614 5616 5617 5619 5622 5624 5627 5631 5634 5638 5642 5646 5650 5656 5661 5665 5669 5674 5679 5683 5687 5692 5696 5699 5702 5706 5708 5710 5713 5715 5718 5719 5722 5724 5727 5730 5732 5735
5631 5629 5630 5628 5628 5631 5634 5636 5638 5640 5644 5647 5650 5655 5659 5663 5667 5670 5674 5678 5681 5685 5688 5690 5693 5695 5697 5699 5701 5703 5705 5706 5708 5709 5711 5713 5716 5717
5642 5641 5641 5639 5639 5641 5641 5642 5643 5644 5646 5648 5651 5655 5657 5660 5663 5666 5669 5672 5675 5677 5679 5682 5683 5684 5686 5687 5689 5689 5690 5692 5693 5694 5695 5697 5698 5700
5652 5651 5649 5649 5649 5648 5649 5649 5650 5651 5651 5652 5653 5655 5657 5658 5659 5660 5662 5663 5665 5667 5669 5670 5671 5672 5673 5674 5675 5675 5676 5676 5677 5678 5679 5679 5680 5681
5660 5660 5659 5657 5656 5655 5655 5655 5656 5655 5655 5656 5656 5657 5657 5657 5658 5657 5657 5657 5657 5657 5656 5656 5656 5657 5658 5658 5659 5659 5659 5660 5660 5661 5661 5661 5662 5661
5667 5665 5664 5663 5662 5662 5662 5662 5660 5659 5658 5658 5659 5658 5657 5656 5656 5655 5655 5654 5653 5651 5650 5649 5647 5646 5644 5642 5642 5641 5640 5641 5640 5640 5640 5639 5640 5640